Location: ????????
(56.0167°N, 38.0333°E)
Time: 11:28:38
(UTC+00:00)

Cosmos 1110 Rocket - Pass Details

Date: 19 May 2025
Orbit: 748 x 777 km, 74.0° (Epoch: 13 June)

Event Time Altitude Azimuth Distance (km) Brightness Sun altitude
Rises 22:15:42 0° 331° (NNW) 3,273 8.1 -13.2°
Reaches altitude 10° 22:18:06 10° 330° (NNW) 2,341 7.2 -13.2°
Maximum altitude 22:23:26 80° 244° (WSW) 794 4.0 -13.0°
Enters shadow 22:28:25 11° 159° (SSE) 2,212 5.9 -12.8°
